Find Starlink 34957

NORAD ID: 65388 Int'l Des: 2025-191 Owner: SPXS Country: US Constellation: starlink operational
LEOCIRCULARRETROGRADESSO

現在のビュー

3D地球を読み込み中...

About Starlink 34957

Starlink 34957 (NORAD 65388) is a starlink constellation satellite (v2 mini) launched Aug 30, 2025 by SPXS of US. It operates in LEO, CIRCULAR, RETROGRADE, SSO orbit with a mass of 575.00 kg.

Starlink 34957について

説明を読み込み中...

次回通過

Passes for default location (London). Set your location on the main map for personalized predictions.

高度履歴

Loading altitude history...

軌道要素

1 65388U 25191K 26165.65239880 .00003698 00000-0 26012-3 0 9999
2 65388 97.3613 36.2570 0002011 85.9074 274.2383 15.05656829 44869
Epoch: Jun 14, 2026 • Age: 10 hours

現在のステータス

高度 553.5 km
速度 7.59 km/s
衛星直下点 35.85°N, 107.16°E
打ち上げ日 Aug 30, 2025
運用期間 0.7 years
タイプ internet

技術仕様

分類 Payload
質量 575.00 kg
乾燥質量 530.00 kg
総質量 575.00 kg
長さ 0.30 m
直径 4.10 m
スパン 29.00 m
形状 Box + pan
製造者 SPXS
バスタイプ Starlink V2MO
フェーズステータス In Orbit
所有者/国 SPXS/US

Most Searched